Date String (YYYY-MM-DD hh:mm:ss) UTC,Instrument flags,absolute air pressure of the measurement (hPa),sample flow rate (lpm),inlet stack bypass flow (lpm),air temperature of the measurement (°C),ambient temperature measured by the external sensor (°C),aerosol sample conditioner tube jacket temperature (°C),OPC LED temperature (°C),internal box temperature (°C),relative humidity of the measurement (%),span deviation,mass concentration of particles derived from Lorenz-Mie calculation of OPC scattering (μg/m³),mass concentration of particles derived from Lorenz-Mie calculation of OPC scattering (μg/m³),mass concentration of particles derived from Lorenz-Mie calculation of OPC scattering (μg/m³)
DateTimeUTC,F1_M11,P_M11,Q1_M11,Q2_M11,T1_M11,T2_M11,T3_M11,T4_M11,T5_M11,U1_M11,ZSPAN_M11,X0_M11,X2_M11,X1_M11
2023-11-26 14:00:00,SystemResetWarning,0832.2,5.01,000.00,018.8,018.1,000.0,027.3,020.0,10.2,0000.0,0002.96,0001.46,0001.29
2023-11-26 14:01:00,SystemResetWarning,0832.2,5.00,000.00,018.8,018.0,000.0,027.3,020.0,10.2,0000.0,0002.94,0001.44,0001.28
2023-11-26 14:02:00,SystemResetWarning,0832.2,5.00,000.00,018.8,017.8,000.0,027.3,020.0,10.1,0000.0,0002.95,0001.45,0001.29
2023-11-26 14:03:00,SystemResetWarning,0832.2,5.00,000.00,018.8,017.7,000.0,027.2,020.1,9.8,0000.0,0002.96,0001.45,0001.29
2023-11-26 14:04:00,SystemResetWarning,0832.2,5.01,000.00,018.9,018.3,000.0,027.2,020.5,9.6,0000.0,0002.98,0001.45,0001.30
2023-11-26 14:05:00,SystemResetWarning,0832.2,4.99,000.00,019.0,019.0,000.0,027.2,020.8,9.5,0000.0,0003.06,0001.48,0001.32
2023-11-26 14:06:00,SystemResetWarning,0832.1,4.99,000.00,019.0,018.9,000.0,027.2,020.3,9.5,0000.0,0002.32,0001.50,0001.33
2023-11-26 14:07:00,SystemResetWarning,0832.2,5.01,000.00,018.9,018.7,000.0,027.2,020.0,9.5,0000.0,0002.11,0001.52,0001.33
2023-11-26 14:08:00,SystemResetWarning,0832.1,5.01,000.00,018.9,018.4,000.0,027.2,020.0,9.5,0000.0,0002.13,0001.52,0001.34
2023-11-26 14:09:00,SystemResetWarning,0832.1,5.00,000.00,018.9,018.2,000.0,027.3,020.0,9.5,0000.0,0002.07,0001.54,0001.33
2023-11-26 14:10:00,SystemResetWarning,0832.1,5.00,000.00,018.8,018.1,000.0,027.3,020.0,9.5,0000.0,0002.11,0001.56,0001.34
2023-11-26 14:11:00,SystemResetWarning,0832.1,4.99,000.00,018.8,018.0,000.0,027.3,020.0,9.5,0000.0,0002.14,0001.57,0001.33
2023-11-26 14:12:00,SystemResetWarning,0832.1,5.00,000.00,018.8,017.8,000.0,027.3,020.0,9.6,0000.0,0002.21,0001.59,0001.32
2023-11-26 14:13:00,SystemResetWarning,0832.1,5.01,000.00,018.8,018.1,000.0,027.2,020.3,9.7,0000.0,0002.25,0001.58,0001.32
2023-11-26 14:14:00,SystemResetWarning,0832.2,5.00,000.00,019.0,018.9,000.0,027.2,020.8,9.6,0000.0,0002.67,0001.60,0001.33
2023-11-26 14:15:00,SystemResetWarning,0832.2,4.99,000.00,019.1,019.3,000.0,027.2,020.8,9.5,0000.0,0002.77,0001.62,0001.33
2023-11-26 14:16:00,SystemResetWarning,0832.2,4.99,000.00,019.0,019.1,000.0,027.2,020.2,9.6,0000.0,0002.74,0001.61,0001.32
2023-11-26 14:17:00,SystemResetWarning,0832.1,5.01,000.00,019.0,018.8,000.0,027.2,020.0,9.6,0000.0,0002.68,0001.60,0001.31
2023-11-26 14:18:00,SystemResetWarning,0832.2,5.00,000.00,018.9,018.6,000.0,027.3,020.0,9.7,0000.0,0002.67,0001.61,0001.31
2023-11-26 14:19:00,SystemResetWarning,0832.1,5.00,000.00,018.9,018.4,000.0,027.3,020.0,9.7,0000.0,0002.65,0001.61,0001.31
2023-11-26 14:20:00,SystemResetWarning,0832.2,4.99,000.00,018.9,018.2,000.0,027.3,020.0,9.6,0000.0,0002.56,0001.57,0001.31
2023-11-26 14:21:00,SystemResetWarning,0832.2,5.00,000.00,018.8,018.1,000.0,027.3,020.0,9.6,0000.0,0002.52,0001.56,0001.32
2023-11-26 14:22:00,SystemResetWarning,0832.2,5.01,000.00,018.8,018.0,000.0,027.3,020.0,9.6,0000.0,0002.57,0001.59,0001.32
2023-11-26 14:23:00,SystemResetWarning,0832.2,5.01,000.00,018.8,017.9,000.0,027.3,020.0,9.6,0000.0,0002.60,0001.61,0001.33
2023-11-26 14:24:00,SystemResetWarning,0832.2,5.00,000.00,018.8,018.0,000.0,027.3,020.2,9.6,0000.0,0002.55,0001.60,0001.34
2023-11-26 14:25:00,SystemResetWarning,0832.2,5.00,000.00,018.9,018.8,000.0,027.2,020.7,9.6,0000.0,0002.29,0001.60,0001.34
2023-11-26 14:26:00,SystemResetWarning,0832.3,5.00,000.00,019.1,019.4,000.0,027.2,020.9,9.8,0000.0,0002.01,0001.57,0001.33
2023-11-26 14:27:00,SystemResetWarning,0832.3,4.98,000.00,019.1,019.3,000.0,027.3,020.6,9.9,0000.0,0001.95,0001.55,0001.33
2023-11-26 14:28:00,SystemResetWarning,0832.2,5.01,000.00,019.1,019.1,000.0,027.3,020.3,9.9,0000.0,0001.98,0001.57,0001.34
2023-11-26 14:29:00,SystemResetWarning,0832.2,5.01,000.00,019.1,018.9,000.0,027.3,020.2,9.9,0000.0,0002.01,0001.57,0001.35
2023-11-26 14:30:00,SystemResetWarning,0832.2,5.00,000.00,019.0,018.8,000.0,027.3,020.1,9.9,0000.0,0002.03,0001.55,0001.34
2023-11-26 14:31:00,SystemResetWarning,0832.3,4.98,000.00,019.0,018.6,000.0,027.3,020.1,9.9,0000.0,0002.06,0001.56,0001.34
2023-11-26 14:32:00,SystemResetWarning,0832.3,5.01,000.00,018.9,018.5,000.0,027.3,020.1,9.9,0000.0,0002.10,0001.58,0001.35
2023-11-26 14:33:00,SystemResetWarning,0832.2,5.01,000.00,018.9,018.4,000.0,027.2,020.0,9.9,0000.0,0002.08,0001.57,0001.35
2023-11-26 14:34:00,SystemResetWarning,0832.2,5.01,000.00,018.9,018.3,000.0,027.2,020.0,10.0,0000.0,0002.01,0001.54,0001.36
2023-11-26 14:35:00,SystemResetWarning,0832.2,4.98,000.00,018.8,018.3,000.0,027.2,020.0,10.2,0000.0,0002.07,0001.57,0001.36
2023-11-26 14:36:00,SystemResetWarning,0832.2,4.99,000.00,018.8,018.2,000.0,027.2,020.0,10.3,0000.0,0002.09,0001.59,0001.38
2023-11-26 14:37:00,SystemResetWarning,0832.2,5.02,000.00,018.8,018.1,000.0,027.2,020.0,10.3,0000.0,0002.22,0001.64,0001.40
2023-11-26 14:38:00,SystemResetWarning,0832.2,5.00,000.00,018.8,018.1,000.0,027.2,020.0,10.3,0000.0,0002.31,0001.67,0001.41
2023-11-26 14:39:00,SystemResetWarning,0832.2,4.99,000.00,018.8,018.0,000.0,027.2,020.0,10.3,0000.0,0002.32,0001.68,0001.41
2023-11-26 14:40:00,SystemResetWarning,0832.2,5.00,000.00,018.8,018.0,000.0,027.2,020.0,10.3,0000.0,0002.30,0001.67,0001.41
2023-11-26 14:41:00,SystemResetWarning,0832.2,5.00,000.00,018.8,018.0,000.0,027.2,020.0,10.3,0000.0,0002.29,0001.70,0001.42
2023-11-26 14:42:00,SystemResetWarning,0832.2,5.00,000.00,018.8,018.1,000.0,027.2,020.2,10.3,0000.0,0002.32,0001.74,0001.46
2023-11-26 14:43:00,SystemResetWarning,0832.3,5.02,000.00,019.0,019.0,000.0,027.2,020.8,10.3,0000.0,0002.33,0001.77,0001.48
2023-11-26 14:44:00,SystemResetWarning,0832.3,4.99,000.00,019.1,019.4,000.0,027.2,020.8,10.3,0000.0,0002.38,0001.80,0001.51
2023-11-26 14:45:00,SystemResetWarning,0832.2,4.99,000.00,019.1,019.3,000.0,027.3,020.6,10.2,0000.0,0002.43,0001.84,0001.54
2023-11-26 14:46:00,SystemResetWarning,0832.2,5.01,000.00,019.1,019.1,000.0,027.3,020.5,10.3,0000.0,0002.43,0001.86,0001.57
2023-11-26 14:47:00,SystemResetWarning,0832.2,5.00,000.00,019.1,019.0,000.0,027.3,020.4,10.4,0000.0,0002.39,0001.86,0001.59
2023-11-26 14:48:00,SystemResetWarning,0832.2,4.99,000.00,019.1,018.8,000.0,027.3,020.3,10.5,0000.0,0002.39,0001.88,0001.61
2023-11-26 14:49:00,SystemResetWarning,0832.2,4.99,000.00,019.1,018.7,000.0,027.3,020.2,10.6,0000.0,0002.61,0001.92,0001.64
2023-11-26 14:50:00,SystemResetWarning,0832.2,4.99,000.00,019.0,018.6,000.0,027.3,020.1,10.7,0000.0,0003.03,0001.99,0001.67
2023-11-26 14:51:00,SystemResetWarning,0832.2,5.00,000.00,019.0,018.5,000.0,027.3,020.0,10.7,0000.0,0003.09,0002.03,0001.70
2023-11-26 14:52:00,SystemResetWarning,0832.2,5.01,000.00,019.0,018.4,000.0,027.3,020.0,10.7,0000.0,0003.04,0002.01,0001.70
2023-11-26 14:53:00,SystemResetWarning,0832.2,5.00,000.00,018.9,018.3,000.0,027.3,020.0,10.7,0000.0,0003.04,0002.00,0001.68
2023-11-26 14:54:00,SystemResetWarning,0832.3,4.99,000.00,018.9,018.2,000.0,027.3,020.0,10.8,0000.0,0003.00,0001.96,0001.65
2023-11-26 14:55:00,SystemResetWarning,0832.3,4.99,000.00,018.9,018.2,000.0,027.3,020.0,10.9,0000.0,0002.99,0001.94,0001.63
2023-11-26 14:56:00,SystemResetWarning,0832.3,5.01,000.00,018.9,018.1,000.0,027.3,020.0,10.9,0000.0,0002.97,0001.91,0001.59
2023-11-26 14:57:00,SystemResetWarning,0832.3,5.00,000.00,018.8,018.0,000.0,027.3,020.0,10.9,0000.0,0002.96,0001.86,0001.55
2023-11-26 14:58:00,SystemResetWarning,0832.3,5.00,000.00,018.8,018.0,000.0,027.3,020.0,10.8,0000.0,0003.07,0001.87,0001.53
2023-11-26 14:59:00,SystemResetWarning,0832.3,5.01,000.00,018.8,018.0,000.0,027.3,020.0,10.8,0000.0,0003.06,0001.85,0001.52
